Location: Atlantic Beach
(40.5890°N, 73.7290°W)
Time: 18:54:41
(UTC+00:00)

Envisat - Visible Passes

Search period start: 22 January 2021 00:00
Search period end: 01 February 2021 00:00
Orbit: 764 x 766 km, 98.1° (Epoch: 22 January)

Date Brightness Start Highest point End Pass type
(mag) Time Alt. Az. Time Alt. Az. Time Alt. Az.
22 Jan 5.1 09:50:28 10° NE 09:54:43 26° E 09:58:56 10° SSE visible
22 Jan 3.5 11:29:10 10° N 11:33:46 36° WNW 11:38:21 10° SW visible
22 Jan 5.4 22:43:47 10° SSW 22:48:05 28° W 22:52:26 10° NW visible
23 Jan 6.2 09:15:57 10° ENE 09:17:31 11° E 09:19:04 10° ESE visible
23 Jan 2.9 10:52:00 10° N 10:57:07 79° WNW 11:02:10 10° SSW visible
24 Jan 4.1 10:15:22 10° NNE 10:20:16 46° E 10:25:07 10° S visible
24 Jan 6.1 23:10:40 10° SW 23:13:43 16° W 23:16:47 10° NW visible
25 Jan 5.5 09:39:26 10° NE 09:43:13 21° E 09:46:58 10° SE visible
25 Jan 3.3 11:17:35 10° N 11:22:25 45° WNW 11:27:13 10° SW visible
25 Jan 4.9 22:31:59 10° SSW 22:36:36 35° W 22:41:16 10° NNW visible
26 Jan 3.1 10:40:36 10° NNE 10:45:42 82° ESE 10:50:47 10° S visible
27 Jan 4.6 10:04:07 10° NNE 10:08:48 36° E 10:13:26 10° SSE visible
27 Jan 5.9 22:58:29 10° SW 23:02:11 20° W 23:05:56 10° NW visible
28 Jan 5.8 09:28:34 10° NE 09:31:41 16° E 09:34:48 10° SE visible
28 Jan 3.0 11:06:04 10° N 11:11:04 57° WNW 11:16:01 10° SSW visible
29 Jan 3.4 10:29:13 10° NNE 10:34:17 64° E 10:39:19 10° S visible
29 Jan 6.5 23:26:29 10° WSW 23:27:53 11° W 23:29:19 10° WNW visible
30 Jan 5.0 09:52:56 10° NE 09:57:19 28° E 10:01:40 10° SSE visible
30 Jan 3.6 11:31:48 10° N 11:36:19 33° WNW 11:40:49 10° SW visible
30 Jan 5.6 22:46:31 10° SSW 22:50:42 26° W 22:54:54 10° NW visible
31 Jan 6.1 09:18:02 10° ENE 09:20:09 12° E 09:22:15 10° ESE visible
31 Jan 2.9 10:54:36 10° N 10:59:41 73° WNW 11:04:44 10° SSW visible
